Cando, ND

9:52 AM CDT on August 25, 2016 (GMT -0500)
Cando

Weather History for K9D7 - January, 2013

Change the Weather History Date:

Thursday, January 3, 2013

  Actual Average (KDVL) Record (KDVL)
Temperature  
Mean Temperature 12 °F -  
Max Temperature 24 °F 12 °F 42 °F (2012)
Min Temperature 0 °F -4 °F -25 °F (1960)
Degree Days  
Heating Degree Days 53    
Moisture  
Dew Point 11 °F    
Average Humidity 83    
Maximum Humidity 100    
Minimum Humidity 69    
Precipitation  
Precipitation 0.00 in - - ()
Sea Level Pressure  
Sea Level Pressure 30.02 in    
Wind  
Wind Speed 13 mph (West)    
Max Wind Speed 26 mph    
Max Gust Speed 29 mph    
Visibility 10 miles    
Events Snow    
Averages and records for this station are not official NWS values.
T = Trace of Precipitation, MM = Missing Value Source: NWS Daily Summary

Daily Weather History Graph

Daily Weather History Graph

Search for Another Location

Airport or City:

Trip Planner

Search our weather history database for the weather conditions in past years. The results will help you decide how hot, cold, wet, or windy it might be!

Date:

Astronomy

Jan. 03, 2013 Rise Set
Actual Time 8:28 AM CST 4:54 PM CST
Civil Twilight 7:52 AM CST 5:31 PM CST
Nautical Twilight 7:12 AM CST 6:11 PM CST
Astronomical Twilight 6:34 AM CST 6:49 PM CST
Moon No Moon Rise 11:08 AM CST (1/3)
Length of Visible Light 9h 39m
Length of Day
8h 26m
Waning Gibbous, 65% of the Moon is Illuminated
Jan 3
Waning Gibbous
Jan 4
Last Quarter
Jan 11
New
Jan 18
First Quarter
Jan 26
Full

Hourly Weather History & Observations

Time (CST) Temp. Windchill Dew Point Humidity Pressure Visibility Wind Dir Wind Speed Gust Speed Precip Events Conditions
12:15 AM 8.6 °F -1.3 °F 3.2 °F 79% 30.22 in 10.0 mi NW 5.8 mph - N/A   Scattered Clouds
12:35 AM 5.0 °F -8.1 °F -0.4 °F 78% 30.22 in 10.0 mi West 8.1 mph - N/A   Clear
12:55 AM 1.4 °F -13.5 °F -2.2 °F 85% 30.22 in 10.0 mi West 9.2 mph - N/A   Clear
1:15 AM -0.4 °F -15.7 °F -2.2 °F 92% 30.22 in 10.0 mi WNW 9.2 mph - N/A   Clear
1:35 AM 1.4 °F -11.3 °F -2.2 °F 85% 30.23 in 10.0 mi NW 6.9 mph - N/A   Scattered Clouds
1:55 AM -0.4 °F -13.4 °F -2.2 °F 92% 30.23 in 10.0 mi West 6.9 mph - N/A   Overcast
2:15 AM 5.0 °F -8.1 °F 1.4 °F 85% 30.22 in 10.0 mi West 8.1 mph - N/A Snow Light Snow
2:35 AM 6.8 °F -5.9 °F 3.2 °F 85% 30.21 in 10.0 mi West 8.1 mph - N/A   Overcast
2:55 AM 6.8 °F -4.8 °F 3.2 °F 85% 30.20 in 10.0 mi WSW 6.9 mph - N/A   Overcast
3:15 AM 5.0 °F -4.1 °F 1.4 °F 85% 30.20 in 10.0 mi SW 4.6 mph - N/A   Overcast
3:35 AM 5.0 °F -2.1 °F 1.4 °F 85% 30.20 in 10.0 mi WSW 3.5 mph - N/A   Overcast
3:55 AM 5.0 °F -2.1 °F 1.4 °F 85% 30.20 in 10.0 mi WSW 3.5 mph - N/A   Overcast
4:15 AM 5.0 °F -4.1 °F 1.4 °F 85% 30.18 in 10.0 mi SW 4.6 mph - N/A   Mostly Cloudy
4:35 AM 5.0 °F -4.1 °F 1.4 °F 85% 30.19 in 10.0 mi WSW 4.6 mph - N/A   Clear
4:55 AM 1.4 °F -12.5 °F -0.4 °F 92% 30.17 in 10.0 mi WSW 8.1 mph - N/A   Mostly Cloudy
5:15 AM 5.0 °F -6.9 °F 3.2 °F 92% 30.16 in 10.0 mi WSW 6.9 mph - N/A   Overcast
5:35 AM 6.8 °F -7.8 °F 5.0 °F 92% 30.16 in 10.0 mi West 10.4 mph - N/A   Scattered Clouds
5:55 AM 8.6 °F -7.0 °F 6.8 °F 92% 30.15 in 10.0 mi WSW 12.7 mph - N/A   Mostly Cloudy
6:15 AM 10.4 °F -4.8 °F 8.6 °F 92% 30.14 in 10.0 mi WSW 12.7 mph - N/A   Mostly Cloudy
6:35 AM 12.2 °F -3.1 °F 8.6 °F 85% 30.13 in 10.0 mi WSW 13.8 mph - N/A   Overcast
6:55 AM 12.2 °F -4.8 °F 10.4 °F 92% 30.12 in 10.0 mi West 17.3 mph - N/A   Overcast
7:15 AM 14.0 °F -2.0 °F 10.4 °F 86% 30.11 in 10.0 mi WSW 16.1 mph - N/A   Overcast
7:35 AM 14.0 °F -2.0 °F 10.4 °F 86% 30.10 in 10.0 mi WSW 16.1 mph - N/A   Overcast
7:55 AM 14.0 °F -2.0 °F 12.2 °F 93% 30.10 in 10.0 mi WSW 16.1 mph - N/A   Overcast
8:15 AM 14.0 °F -2.5 °F 14.0 °F 100% 30.09 in 10.0 mi West 17.3 mph 20.7 mph N/A   Overcast
8:35 AM 14.0 °F -0.8 °F 10.4 °F 86% 30.10 in 10.0 mi WSW 13.8 mph - N/A   Mostly Cloudy
8:55 AM 10.4 °F -3.3 °F 8.6 °F 92% 30.09 in 10.0 mi WSW 10.4 mph - N/A   Partly Cloudy
9:15 AM 10.4 °F -5.4 °F 8.6 °F 92% 30.08 in 10.0 mi SW 13.8 mph - N/A   Clear
9:35 AM 12.2 °F -3.1 °F 10.4 °F 92% 30.07 in 10.0 mi SW 13.8 mph - N/A   Clear
9:55 AM 14.0 °F -1.4 °F 10.4 °F 86% 30.06 in 10.0 mi WSW 15.0 mph - N/A   Clear
10:35 AM 17.6 °F 2.2 °F 14.0 °F 86% 30.06 in 10.0 mi WSW 17.3 mph - N/A   Clear
10:55 AM 17.6 °F 2.2 °F 14.0 °F 86% 30.05 in 10.0 mi SW 17.3 mph - N/A   Clear
11:15 AM 17.6 °F 2.2 °F 14.0 °F 86% 30.04 in 10.0 mi WSW 17.3 mph - N/A   Clear
11:35 AM 17.6 °F 2.2 °F 14.0 °F 86% 30.03 in 10.0 mi WSW 17.3 mph - N/A   Clear
11:55 AM 19.4 °F 3.6 °F 15.8 °F 86% 30.02 in 10.0 mi WSW 19.6 mph - N/A   Clear
12:15 PM 19.4 °F 4.5 °F 15.8 °F 86% 30.00 in 10.0 mi WSW 17.3 mph - N/A   Clear
12:35 PM 19.4 °F 3.6 °F 15.8 °F 86% 29.99 in 10.0 mi WSW 19.6 mph - N/A   Clear
12:55 PM 21.2 °F 6.0 °F 15.8 °F 80% 29.97 in 10.0 mi WSW 19.6 mph - N/A   Clear
1:15 PM 21.2 °F 6.0 °F 15.8 °F 80% 29.96 in 10.0 mi WSW 19.6 mph - N/A   Clear
1:35 PM 23.0 °F 7.6 °F 17.6 °F 80% 29.94 in 10.0 mi WSW 21.9 mph 26.5 mph N/A   Clear
1:55 PM 23.0 °F 8.3 °F 17.6 °F 80% 29.93 in 10.0 mi WSW 19.6 mph - N/A   Clear
2:15 PM 24.8 °F 8.7 °F 17.6 °F 74% 29.92 in 10.0 mi West 26.5 mph - N/A   Clear
2:35 PM 24.8 °F 9.6 °F 17.6 °F 74% 29.91 in 10.0 mi West 23.0 mph 28.8 mph N/A   Clear
2:55 PM 24.8 °F 9.6 °F 17.6 °F 74% 29.91 in 10.0 mi West 23.0 mph - N/A   Clear
3:15 PM 24.8 °F 10.0 °F 17.6 °F 74% 29.90 in 10.0 mi West 21.9 mph 26.5 mph N/A   Clear
3:55 PM 23.0 °F 9.6 °F 17.6 °F 80% 29.91 in 10.0 mi WSW 16.1 mph - N/A   Clear
4:15 PM 23.0 °F 10.6 °F 17.6 °F 80% 29.91 in 10.0 mi WSW 13.8 mph - N/A   Clear
4:35 PM 21.2 °F 7.8 °F 15.8 °F 80% 29.90 in 10.0 mi WSW 15.0 mph - N/A   Clear
4:55 PM 23.0 °F 8.7 °F 15.8 °F 74% 29.89 in 10.0 mi WSW 18.4 mph - N/A   Clear
5:15 PM 19.4 °F 4.5 °F 15.8 °F 86% 29.88 in 10.0 mi WSW 17.3 mph - N/A   Clear
5:35 PM 21.2 °F 6.8 °F 15.8 °F 80% 29.88 in 10.0 mi WSW 17.3 mph - N/A   Clear
5:55 PM 21.2 °F 5.6 °F 15.8 °F 80% 29.87 in 10.0 mi WSW 20.7 mph - N/A   Clear
6:15 PM 23.0 °F 8.0 °F 15.8 °F 74% 29.87 in 10.0 mi West 20.7 mph - N/A   Clear
6:35 PM 24.8 °F 9.3 °F 15.8 °F 69% 29.86 in 10.0 mi West 24.2 mph - N/A   Clear
6:55 PM 24.8 °F 10.0 °F 15.8 °F 69% 29.88 in 10.0 mi West 21.9 mph - N/A   Clear
7:15 PM 23.0 °F 7.2 °F 15.8 °F 74% 29.87 in 10.0 mi West 23.0 mph - N/A   Clear
7:35 PM 23.0 °F 8.0 °F 15.8 °F 74% 29.87 in 10.0 mi West 20.7 mph - N/A   Clear
7:55 PM 23.0 °F 7.6 °F 15.8 °F 74% 29.87 in 10.0 mi West 21.9 mph - N/A   Clear
8:15 PM 23.0 °F 9.2 °F 15.8 °F 74% 29.87 in 10.0 mi West 17.3 mph - N/A   Clear
8:35 PM 23.0 °F 8.3 °F 15.8 °F 74% 29.88 in 10.0 mi West 19.6 mph - N/A   Clear
8:55 PM 23.0 °F 8.3 °F 15.8 °F 74% 29.88 in 10.0 mi WNW 19.6 mph - N/A   Clear
9:15 PM 23.0 °F 8.3 °F 15.8 °F 74% 29.88 in 10.0 mi WNW 19.6 mph - N/A   Clear
9:35 PM 23.0 °F 8.7 °F 15.8 °F 74% 29.88 in 10.0 mi West 18.4 mph - N/A   Clear
9:55 PM 23.0 °F 7.6 °F 15.8 °F 74% 29.88 in 10.0 mi West 21.9 mph 26.5 mph N/A   Clear
10:15 PM 21.2 °F 5.2 °F 15.8 °F 80% 29.88 in 10.0 mi West 21.9 mph 28.8 mph N/A   Clear
10:35 PM 21.2 °F 5.6 °F 15.8 °F 80% 29.90 in 10.0 mi West 20.7 mph 25.3 mph N/A   Clear
10:55 PM 21.2 °F 6.4 °F 15.8 °F 80% 29.90 in 10.0 mi WNW 18.4 mph - N/A   Clear
11:15 PM 19.4 °F 3.6 °F 15.8 °F 86% 29.90 in 10.0 mi WNW 19.6 mph - N/A   Clear
11:35 PM 19.4 °F 4.1 °F 15.8 °F 86% 29.91 in 10.0 mi WNW 18.4 mph - N/A   Clear
11:55 PM 19.4 °F 5.0 °F 15.8 °F 86% 29.92 in 10.0 mi WNW 16.1 mph - N/A   Clear